Погода в Огбомошо

Нигерия     8°08′08″N   4°14′14″E
темп.,
°C
ветер,
м/с
пор.,
м/с
влажн.,
%
обл.,
%
осадки,
мм/ч
давл.,
гПа
погр.,
м
10 августа, ср
ср1001:00+21ююз389851 0.4 1014354
04:00+21юз379789 0.0 1013415
07:00+20юз3796100 0.0 1014374
10:00+24юз357874 0.0 1015738
13:00+27юз346969 0.1 10131133
16:00+27юз346890 0.1 1011999
19:00+24ююз2480100 0.1 101185
22:00+23ююз2886100 0.0 1013257
11 августа, чт
чт1101:00+21ююз278982 0.0 1013320
04:00+20ююз3990100 0.0 1013404
07:00+20юз399494 0.0 1015415
10:00+22юз3782100 0.0 1015573
13:00+26юз4570100 0.0 1014965
16:00+26юз4568100 0.0 10111075
19:00+23ююз238299 0.1 101266
22:00+22ю2789100 0.0 1014250
12 августа, пт
пт1201:00+21ююз3891100 0.1 1013376
04:00+20юз3893100 0.3 1012392
07:00+20юз3993100 0.4 1013426
10:00+21юз498799 0.0 1015561
13:00+26юз5767100 0.0 10131120
16:00+24юз567563 0.1 1012825
19:00+22юз378347 0.1 1013453
22:00+22юз278620 0.0 1015371
13 августа, сб
сб1301:00+20юз2794100 0.0 1014267
04:00+19юз2893100 0.0 1013298
07:00+19юз279293 0.0 1015295
10:00+24юз467187 0.0 1015740
13:00+27зюз3467100 0.1 10141249
16:00+27зюз336978 0.3 1012996
19:00+23ююз2586100 0.8 1013133
22:00+22ююз3895100 1.0 1014275
14 августа, вс
вс1401:00+21ююз2798100 2.2 1014404
04:00+20ююз3897100 2.9 1013515
07:00+20ююз3898100 4.9 1013506
10:00+20ю3898100 6.3 1014540
13:00+21ююз3998100 12.4 1013525
16:00+21ююз4897100 1.1 1011559
19:00+21юз4897100 1.2 1012513
22:00+21юз4897100 0.0 1013489